Regional Weather Roundup
Issued by NWS Newport/Morehead, NC

Current Version | Previous Version | Graphics & Text | Print | Product List | Glossary Off
Versions: 1 2 3 4 5 6 7 8 9 10 11 12 13 14 15 16 17 18 19 20 21 22 23 24 25 26 27 28 29 30 31 32 33 34 35 36 37 38 39 40 41 42 43 44 45 46 47 48 49 50

000
ASUS42 KMHX 222122
RWRMHX
WEATHER ROUNDUP FOR EASTERN NORTH CAROLINA
NATIONAL WEATHER SERVICE NEWPORT/MOREHEAD CITY NC
500 PM EDT TUE APR 22 2014

NOTE: "FAIR" INDICATES FEW OR NO CLOUDS BELOW 12,000 FEET
WITH NO SIGNIFICANT WEATHER AND/OR OBSTRUCTIONS TO VISIBILITY

NCZ015>017-031-032-045>047-102-103-222200-
NORTH COAST

CITY           SKY/WX    TMP DP  RH WIND       PRES   REMARKS
EDENTON        MOSUNNY   80  50  34 SW10      29.64S
ELIZABETH CITY MOSUNNY   80  52  37 S14       29.62F
KITTY HAWK     PTCLDY    73  55  53 S5        29.64F
MANTEO         MOSUNNY   69  56  62 S15       29.65F

$$

NCZ045>047-081-094-103-104-222200-
CENTRAL COAST

CITY           SKY/WX    TMP DP  RH WIND       PRES   REMARKS
FRISCO         MOSUNNY   62  32  32 SW13      29.69F
SWANQUARTER      N/A     73 N/A N/A SW8G15    29.62F

$$

NCZ095-097-098-100-101-222200-
SOUTHERN COAST

CITY           SKY/WX    TMP DP  RH WIND       PRES   REMARKS
BEAUFORT       SUNNY     68  57  68 SW17      29.71S
CEDAR ISLAND     N/A     75 N/A N/A S14G22    29.74S
JACKSONVILLE   MOSUNNY   77  51  40 S13G21    29.68F
NEWPORT          N/A     70  54  56 SW12        N/A
PINEY ISLAND   CLEAR     77  48  35 SW18G25   29.69F
WILMINGTON     SUNNY     79  52  38 S18G25    29.70S


$$

NCZ011>013-027>030-043-044-078>080-089-090>093-098-222200-
COASTAL PLAIN

CITY           SKY/WX    TMP DP  RH WIND       PRES   REMARKS
AHOSKIE        PTSUNNY   79  51  37 CALM      29.63S
CLINTON        MOSUNNY   82  53  36 SW3       29.67F
ELIZABETHTOWN  MOSUNNY   83  47  29 SW12G17   29.69S
GOLDSBORO      PTSUNNY   83  50  31 SW15      29.65F
GREENVILLE     MOSUNNY   81  52  36 W7        29.69S
HAVELOCK       SUNNY     76  46  34 SW13G25   29.70F
KENANSVILLE    MOSUNNY   83  47  28 SW9       29.68S
KINSTON        SUNNY     82  46  28 SW9       29.67S
NEW BERN       SUNNY     82  50  32 S13       29.67F
RICHLANDS      SUNNY     82  81  94 SW12      29.67F
ROANOKE RAPIDS NOT AVBL
ROCKY MOUNT    PTSUNNY   83  51  33 S10G17    29.65F
WASHINGTON     SUNNY     81  46  29 SW14      29.65S
WHITEVILLE     SUNNY     83  49  30 W7        29.69F

$$

AMZ130-135-150-152-154-156-158-170-250-252-270-ANZ085-086-088-633-658-670-222200-
MARINE OBSERVATIONS

STATION/POSITION TIME  TEMP    WIND        PRES    WAVE   SWELL
                       AIR SEA DIR/SP/G            HT/PER HT/PER
                 (UTC) (F)     (DEG/KT/KT) (MB)    (FT/S) (FT/S)
CHESAPEAKE LIGHT 2100   58     180/ 23/ 24 1002.7
BUOY 44014       2100   54 50  180/ 10/ 12 1003.9    5/ 9   5/ 9
DUCK             2100   74 48  200/ 11/ 14 1002.5
2E DUCK          2100      54                N/A     3/ 8
OREGON INLET     2100   62 57  200/ 14/ 16 1004.5
BUOY 44095       2100      50                N/A     4/ 9   2/11
HATTERAS CG      2100   66 56  220/ 12/ 18 1005.6
DIAMOND BUOY     2100   73 76  240/ 21/ 25 1004.8    5/ 8   3/ 8
CAPE LOOKOUT     2100   68     210/  9/ 15 1005.9
BEAUFORT LAB     2100   67 59  220/  7/ 13 1005.3
30 SE NEW RIVER  2100   70 70  230/ 17/ 21 1006.5    4/ 9   3/ 9
5 SE WRIGHTSVILL 2100   63 60  210/ 16/ 17 1005.9
FRYING PAN BUOY  2100   70 68  220/ 16/ 17 1006.8    4/ 9   2/ 9
BUOY 41001       NOT AVBL
BUOY 41002       NOT AVBL
BUOY 41004       2100   70 70  220/ 17/ 19 1007.9    4/ 9   3/ 9

$$



USA.gov is the U.S. government's official web portal to all federal, state and local government web resources and services.